Powrót do katalogu

ONEWEB-0242

AktywnyŁącznośćPO
NORAD 48772·PAYLOAD·🇬🇧 United Kingdom

Wystrzelony May 28, 2021 z Vostochny Cosmodrome

Loading…

Następne Przeloty (najbliższe 24 godziny)

TLE

ŚwieżeSource: CelesTrak SupGP

Epoka: Sep 14, 2026, 17:23 UTC

1 48772C 21045F   26257.72447176  .00001633  00000+0  43428-2 0  2572
2 48772  87.8991 241.3413 0002201  83.2707 309.8776 13.15546200    10

Śledź ONEWEB-0242 w czasie rzeczywistym z AllMySat

Download on the App Store